User: anonymous   Login
Location: Falniów
(50.3639°N, 19.9642°E)
Time: 13:43:16
(UTC+00:00)
Language:

Cosmos 1743 Rocket - Orbit

View from above orbital plane
View from above orbital plane
View from above satellite
View from above satellite

Ground track
Ground track

The orbit is defined by the following mean orbital elements,

1 16720U          26067.16298756 +.00000000 +00000-0 +70959-4 0 00008
2 16720  82.5556 148.4604 0019803  25.8012 349.3049 14.85667270    03
Epoch (UTC): 08 March 2026 03:54:42
Eccentricity: 0.0019803
inclination: 82.5556°
perigee height: 598 km
apogee height: 625 km
right ascension of ascending node: 148.4604°
argument of perigee: 25.8012°
revolutions per day: 14.85667270
mean anomaly at epoch: 349.3049°

The dashed part of the orbit path shows where the satellite is in the earth's shadow,  

DLR